Time,TemperatureF,DewpointF,PressureIn,WindDirection,WindDirectionDegrees,WindSpeedMPH,WindSpeedGustMPH,Humidity,HourlyPrecipIn,Conditions,Clouds,dailyrainin,SoftwareType,DateUTC
2013-02-03 00:11:00,59.0,39.0,30.09,North,0,0.0,1.0,47,0.00,,,-99.99,,2013-02-03 08:11:00,
2013-02-03 00:22:00,59.0,39.0,30.09,North,0,0.0,1.0,47,0.00,,,-99.99,,2013-02-03 08:22:00,
2013-02-03 00:32:00,59.0,39.0,30.09,North,0,0.0,1.0,47,0.00,,,-99.99,,2013-02-03 08:32:00,
2013-02-03 00:41:00,59.0,39.0,30.09,North,0,0.0,1.0,47,0.00,,,-99.99,,2013-02-03 08:41:00,
2013-02-03 01:00:00,59.0,38.0,30.07,West,280,1.0,2.0,46,0.00,,,-99.99,,2013-02-03 09:00:00,
2013-02-03 01:02:00,59.0,39.0,30.08,WNW,300,4.0,4.0,47,0.00,,,-99.99,,2013-02-03 09:02:00,
2013-02-03 01:11:00,59.0,39.0,30.08,WNW,300,4.0,4.0,47,0.00,,,-99.99,,2013-02-03 09:11:00,
2013-02-03 01:21:00,59.0,39.0,30.08,WNW,300,4.0,4.0,47,0.00,,,-99.99,,2013-02-03 09:21:00,
2013-02-03 01:31:00,59.0,38.0,30.07,West,280,1.0,2.0,46,0.00,,,-99.99,,2013-02-03 09:31:00,
2013-02-03 01:42:00,59.0,38.0,30.07,West,280,1.0,2.0,46,0.00,,,-99.99,,2013-02-03 09:42:00,
2013-02-03 01:52:00,59.0,38.0,30.07,West,280,1.0,2.0,46,0.00,,,-99.99,,2013-02-03 09:52:00,
2013-02-03 02:32:00,58.0,38.0,30.06,North,-999,0.0,0.0,47,0.00,,,-99.99,,2013-02-03 10:32:00,
2013-02-03 02:42:00,58.0,38.0,30.06,North,-999,0.0,0.0,47,0.00,,,-99.99,,2013-02-03 10:42:00,
2013-02-03 02:52:00,58.0,37.0,30.06,North,0,0.0,3.0,46,0.00,,,-99.99,,2013-02-03 10:52:00,
2013-02-03 03:02:00,58.0,37.0,30.06,North,0,0.0,1.0,46,0.00,,,-99.99,,2013-02-03 11:02:00,
2013-02-03 03:11:00,58.0,37.0,30.06,North,0,0.0,1.0,46,0.00,,,-99.99,,2013-02-03 11:11:00,
2013-02-03 03:22:00,58.0,37.0,30.06,North,0,0.0,1.0,46,0.00,,,-99.99,,2013-02-03 11:22:00,
2013-02-03 03:31:00,57.0,37.0,30.06,North,-999,0.0,0.0,47,0.00,,,-99.99,,2013-02-03 11:31:00,
2013-02-03 03:41:00,58.0,38.0,30.06,North,0,0.0,1.0,47,0.00,,,-99.99,,2013-02-03 11:41:00,
2013-02-03 03:52:00,58.0,38.0,30.06,North,0,0.0,1.0,47,0.00,,,-99.99,,2013-02-03 11:52:00,
2013-02-03 04:02:00,58.0,38.0,30.06,North,0,0.0,1.0,47,0.00,,,-99.99,,2013-02-03 12:02:00,
2013-02-03 04:11:00,57.0,36.0,30.05,North,-999,0.0,0.0,46,0.00,,,-99.99,,2013-02-03 12:11:00,
2013-02-03 04:22:00,57.0,36.0,30.05,North,-999,0.0,0.0,46,0.00,,,-99.99,,2013-02-03 12:22:00,
2013-02-03 04:32:00,57.0,38.0,30.05,North,-999,0.0,0.0,49,0.00,,,-99.99,,2013-02-03 12:32:00,
2013-02-03 04:42:00,56.0,37.0,30.05,North,-999,0.0,0.0,49,0.00,,,-99.99,,2013-02-03 12:42:00,
2013-02-03 04:53:00,56.0,37.0,30.05,North,-999,0.0,0.0,49,0.00,,,-99.99,,2013-02-03 12:53:00,
2013-02-03 05:03:00,56.0,38.0,30.04,North,-999,0.0,0.0,51,0.00,,,-99.99,,2013-02-03 13:03:00,
2013-02-03 05:11:00,55.0,38.0,30.04,North,0,0.0,1.0,52,0.00,,,-99.99,,2013-02-03 13:11:00,
2013-02-03 05:21:00,55.0,38.0,30.04,North,0,0.0,1.0,52,0.00,,,-99.99,,2013-02-03 13:21:00,
2013-02-03 05:32:00,55.0,38.0,30.04,North,-999,0.0,0.0,52,0.00,,,-99.99,,2013-02-03 13:32:00,
2013-02-03 05:41:00,55.0,38.0,30.04,North,-999,0.0,0.0,53,0.00,,,-99.99,,2013-02-03 13:41:00,
2013-02-03 05:52:00,55.0,38.0,30.04,North,-999,0.0,0.0,53,0.00,,,-99.99,,2013-02-03 13:52:00,
2013-02-03 06:02:00,55.0,39.0,30.04,North,-999,0.0,0.0,54,0.00,,,-99.99,,2013-02-03 14:02:00,
2013-02-03 06:11:00,55.0,39.0,30.04,North,-999,0.0,0.0,54,0.00,,,-99.99,,2013-02-03 14:11:00,
2013-02-03 06:21:00,55.0,39.0,30.04,North,-999,0.0,0.0,54,0.00,,,-99.99,,2013-02-03 14:21:00,
2013-02-03 06:31:00,55.0,39.0,30.04,North,-999,0.0,0.0,54,0.00,,,-99.99,,2013-02-03 14:31:00,
2013-02-03 06:42:00,55.0,39.0,30.04,North,-999,0.0,0.0,55,0.00,,,-99.99,,2013-02-03 14:42:00,
2013-02-03 06:52:00,55.0,39.0,30.04,North,-999,0.0,0.0,55,0.00,,,-99.99,,2013-02-03 14:52:00,
2013-02-03 07:03:00,55.0,39.0,30.05,North,-999,0.0,0.0,54,0.00,,,-99.99,,2013-02-03 15:03:00,
2013-02-03 07:11:00,55.0,39.0,30.05,North,-999,0.0,0.0,54,0.00,,,-99.99,,2013-02-03 15:11:00,
2013-02-03 07:21:00,55.0,39.0,30.05,North,-999,0.0,0.0,54,0.00,,,-99.99,,2013-02-03 15:21:00,
2013-02-03 07:32:00,55.0,38.0,30.05,North,-999,0.0,0.0,53,0.00,,,-99.99,,2013-02-03 15:32:00,
2013-02-03 07:41:00,55.0,38.0,30.06,North,-999,0.0,0.0,52,0.00,,,-99.99,,2013-02-03 15:41:00,
2013-02-03 07:52:00,55.0,38.0,30.06,North,-999,0.0,0.0,52,0.00,,,-99.99,,2013-02-03 15:52:00,
2013-02-03 08:02:00,56.0,39.0,30.06,North,-999,0.0,0.0,52,0.00,,,-99.99,,2013-02-03 16:02:00,
2013-02-03 08:11:00,56.0,38.0,30.06,North,-999,0.0,0.0,51,0.00,,,-99.99,,2013-02-03 16:11:00,
2013-02-03 08:21:00,56.0,38.0,30.06,North,-999,0.0,0.0,51,0.00,,,-99.99,,2013-02-03 16:21:00,
2013-02-03 08:32:00,57.0,40.0,30.06,North,-999,0.0,0.0,52,0.00,,,-99.99,,2013-02-03 16:32:00,
2013-02-03 08:41:00,57.0,40.0,30.06,North,-999,0.0,0.0,52,0.00,,,-99.99,,2013-02-03 16:41:00,
2013-02-03 08:52:00,57.0,40.0,30.06,North,-999,0.0,0.0,52,0.00,,,-99.99,,2013-02-03 16:52:00,
2013-02-03 09:02:00,57.0,39.0,30.07,North,0,0.0,1.0,51,0.00,,,-99.99,,2013-02-03 17:02:00,
2013-02-03 09:11:00,57.0,39.0,30.07,North,0,0.0,1.0,51,0.00,,,-99.99,,2013-02-03 17:11:00,
2013-02-03 09:21:00,57.0,39.0,30.07,North,0,0.0,1.0,51,0.00,,,-99.99,,2013-02-03 17:21:00,
2013-02-03 09:31:00,58.0,39.0,30.07,WNW,290,3.0,3.0,50,0.00,,,-99.99,,2013-02-03 17:31:00,
2013-02-03 09:42:00,59.0,39.0,30.08,West,270,4.0,4.0,48,0.00,,,-99.99,,2013-02-03 17:42:00,
2013-02-03 09:52:00,59.0,39.0,30.08,West,270,4.0,4.0,48,0.00,,,-99.99,,2013-02-03 17:52:00,
2013-02-03 10:02:00,59.0,35.0,30.08,West,270,5.0,5.0,41,0.00,,,-99.99,,2013-02-03 18:02:00,
2013-02-03 10:11:00,59.0,41.0,30.08,West,260,4.0,6.0,51,0.00,,,-99.99,,2013-02-03 18:11:00,
2013-02-03 10:23:00,59.0,41.0,30.08,West,260,4.0,6.0,51,0.00,,,-99.99,,2013-02-03 18:23:00,
2013-02-03 10:30:00,60.0,39.0,30.08,North,0,0.0,2.0,45,0.00,,,-99.99,,2013-02-03 18:30:00,
2013-02-03 10:32:00,59.0,42.0,30.09,WSW,250,1.0,1.0,53,0.00,,,-99.99,,2013-02-03 18:32:00,
2013-02-03 10:41:00,59.0,42.0,30.09,WSW,250,1.0,1.0,53,0.00,,,-99.99,,2013-02-03 18:41:00,
2013-02-03 10:52:00,60.0,41.0,30.08,North,0,0.0,4.0,50,0.00,,,-99.99,,2013-02-03 18:52:00,
2013-02-03 11:02:00,60.0,39.0,30.08,North,0,0.0,2.0,45,0.00,,,-99.99,,2013-02-03 19:02:00,
2013-02-03 11:11:00,60.0,39.0,30.08,North,0,0.0,2.0,45,0.00,,,-99.99,,2013-02-03 19:11:00,
2013-02-03 11:21:00,60.0,39.0,30.08,North,0,0.0,2.0,45,0.00,,,-99.99,,2013-02-03 19:21:00,
2013-02-03 12:01:00,60.0,41.0,30.05,North,-999,0.0,0.0,49,0.00,,,-99.99,,2013-02-03 20:01:00,
2013-02-03 12:11:00,60.0,41.0,30.04,WSW,250,1.0,3.0,50,0.00,,,-99.99,,2013-02-03 20:11:00,
2013-02-03 12:21:00,60.0,41.0,30.04,WSW,250,1.0,3.0,50,0.00,,,-99.99,,2013-02-03 20:21:00,
2013-02-03 12:32:00,60.0,42.0,30.03,West,270,2.0,3.0,51,0.00,,,-99.99,,2013-02-03 20:32:00,
2013-02-03 12:42:00,62.0,43.0,30.02,West,270,3.0,4.0,49,0.00,,,-99.99,,2013-02-03 20:42:00,
2013-02-03 12:52:00,62.0,43.0,30.02,West,270,3.0,4.0,49,0.00,,,-99.99,,2013-02-03 20:52:00,
2013-02-03 13:02:00,63.0,43.0,30.01,North,-999,0.0,0.0,48,0.00,,,-99.99,,2013-02-03 21:02:00,
2013-02-03 13:11:00,63.0,43.0,30.00,WSW,250,2.0,4.0,48,0.00,,,-99.99,,2013-02-03 21:11:00,
2013-02-03 13:21:00,63.0,43.0,30.00,WSW,250,2.0,4.0,48,0.00,,,-99.99,,2013-02-03 21:21:00,
2013-02-03 13:32:00,62.0,43.0,29.99,North,-999,0.0,0.0,50,0.00,,,-99.99,,2013-02-03 21:32:00,
2013-02-03 13:42:00,64.0,45.0,29.98,North,0,0.0,4.0,51,0.00,,,-99.99,,2013-02-03 21:42:00,
2013-02-03 13:52:00,64.0,45.0,29.98,North,0,0.0,4.0,51,0.00,,,-99.99,,2013-02-03 21:52:00,
2013-02-03 14:01:00,64.0,44.0,29.97,North,0,0.0,1.0,49,0.00,,,-99.99,,2013-02-03 22:01:00,
2013-02-03 14:11:00,65.0,44.0,29.97,North,0,0.0,4.0,47,0.00,,,-99.99,,2013-02-03 22:11:00,
2013-02-03 14:21:00,65.0,44.0,29.97,North,0,0.0,4.0,47,0.00,,,-99.99,,2013-02-03 22:21:00,
2013-02-03 14:32:00,65.0,45.0,29.97,North,-999,0.0,0.0,49,0.00,,,-99.99,,2013-02-03 22:32:00,
2013-02-03 14:41:00,65.0,45.0,29.97,North,-999,0.0,0.0,49,0.00,,,-99.99,,2013-02-03 22:41:00,
2013-02-03 14:52:00,67.0,45.0,29.96,North,-999,0.0,0.0,45,0.00,,,-99.99,,2013-02-03 22:52:00,
2013-02-03 15:01:00,67.0,45.0,29.96,North,-999,0.0,0.0,45,0.00,,,-99.99,,2013-02-03 23:01:00,
2013-02-03 15:11:00,65.0,45.0,29.95,North,0,0.0,3.0,48,0.00,,,-99.99,,2013-02-03 23:11:00,
2013-02-03 15:21:00,65.0,45.0,29.95,North,0,0.0,3.0,48,0.00,,,-99.99,,2013-02-03 23:21:00,
2013-02-03 15:32:00,66.0,46.0,29.95,North,-999,0.0,0.0,48,0.00,,,-99.99,,2013-02-03 23:32:00,
2013-02-03 15:41:00,66.0,46.0,29.95,North,-999,0.0,0.0,48,0.00,,,-99.99,,2013-02-03 23:41:00,
2013-02-03 15:52:00,66.0,46.0,29.95,North,-999,0.0,0.0,48,0.00,,,-99.99,,2013-02-03 23:52:00,
2013-02-03 16:01:00,67.0,46.0,29.95,WSW,240,1.0,2.0,46,0.00,,,-99.99,,2013-02-04 00:01:00,
2013-02-03 16:11:00,66.0,46.0,29.95,North,0,0.0,2.0,48,0.00,,,-99.99,,2013-02-04 00:11:00,
2013-02-03 16:21:00,66.0,46.0,29.95,North,0,0.0,2.0,48,0.00,,,-99.99,,2013-02-04 00:21:00,
2013-02-03 16:31:00,64.0,44.0,29.94,North,0,0.0,2.0,48,0.00,,,-99.99,,2013-02-04 00:31:00,
2013-02-03 16:41:00,64.0,45.0,29.94,North,0,0.0,2.0,51,0.00,,,-99.99,,2013-02-04 00:41:00,
2013-02-03 16:52:00,64.0,45.0,29.94,North,0,0.0,2.0,51,0.00,,,-99.99,,2013-02-04 00:52:00,
2013-02-03 17:01:00,65.0,44.0,29.93,North,0,0.0,1.0,46,0.00,,,-99.99,,2013-02-04 01:01:00,
2013-02-03 17:11:00,65.0,42.0,29.93,North,0,0.0,3.0,43,0.00,,,-99.99,,2013-02-04 01:11:00,
2013-02-03 17:21:00,65.0,42.0,29.93,North,0,0.0,3.0,43,0.00,,,-99.99,,2013-02-04 01:21:00,
2013-02-03 17:31:00,65.0,41.0,29.93,North,-999,0.0,0.0,42,0.00,,,-99.99,,2013-02-04 01:31:00,
2013-02-03 17:41:00,64.0,40.0,29.93,North,0,0.0,1.0,42,0.00,,,-99.99,,2013-02-04 01:41:00,
2013-02-03 17:52:00,64.0,40.0,29.93,North,0,0.0,1.0,42,0.00,,,-99.99,,2013-02-04 01:52:00,
2013-02-03 18:01:00,62.0,39.0,29.94,North,-999,0.0,0.0,43,0.00,,,-99.99,,2013-02-04 02:01:00,
2013-02-03 18:11:00,61.0,40.0,29.94,North,0,0.0,3.0,46,0.00,,,-99.99,,2013-02-04 02:11:00,
2013-02-03 18:21:00,61.0,40.0,29.94,North,0,0.0,3.0,46,0.00,,,-99.99,,2013-02-04 02:21:00,
2013-02-03 18:31:00,61.0,42.0,29.95,WSW,240,3.0,3.0,49,0.00,,,-99.99,,2013-02-04 02:31:00,
2013-02-03 18:41:00,60.0,40.0,29.95,North,0,0.0,6.0,48,0.00,,,-99.99,,2013-02-04 02:41:00,
2013-02-03 18:52:00,60.0,40.0,29.95,North,0,0.0,6.0,48,0.00,,,-99.99,,2013-02-04 02:52:00,
2013-02-03 19:01:00,59.0,41.0,29.95,North,-999,0.0,0.0,51,0.00,,,-99.99,,2013-02-04 03:01:00,
2013-02-03 19:11:00,59.0,42.0,29.96,North,0,0.0,5.0,53,0.00,,,-99.99,,2013-02-04 03:11:00,
2013-02-03 19:21:00,59.0,42.0,29.96,North,0,0.0,5.0,53,0.00,,,-99.99,,2013-02-04 03:21:00,
2013-02-03 19:31:00,59.0,35.0,29.96,West,280,2.0,6.0,40,0.00,,,-99.99,,2013-02-04 03:31:00,
2013-02-03 19:41:00,60.0,34.0,29.96,WNW,290,1.0,12.0,37,0.00,,,-99.99,,2013-02-04 03:41:00,
2013-02-03 19:52:00,60.0,34.0,29.96,WNW,290,1.0,12.0,37,0.00,,,-99.99,,2013-02-04 03:52:00,
2013-02-03 20:01:00,60.0,34.0,29.96,WNW,290,1.0,12.0,37,0.00,,,-99.99,,2013-02-04 04:01:00,
2013-02-03 20:11:00,59.0,32.0,29.98,WNW,290,4.0,9.0,36,0.00,,,-99.99,,2013-02-04 04:11:00,
2013-02-03 20:21:00,59.0,32.0,29.98,WNW,290,4.0,9.0,36,0.00,,,-99.99,,2013-02-04 04:21:00,
2013-02-03 20:31:00,60.0,32.0,29.99,WNW,290,5.0,8.0,34,0.00,,,-99.99,,2013-02-04 04:31:00,
2013-02-03 20:41:00,60.0,29.0,29.98,WNW,290,5.0,11.0,31,0.00,,,-99.99,,2013-02-04 04:41:00,
2013-02-03 20:52:00,60.0,29.0,29.98,WNW,290,5.0,11.0,31,0.00,,,-99.99,,2013-02-04 04:52:00,
2013-02-03 21:03:00,60.0,29.0,29.98,WNW,290,5.0,11.0,31,0.00,,,-99.99,,2013-02-04 05:03:00,
2013-02-03 21:11:00,60.0,30.0,29.98,WNW,300,3.0,8.0,32,0.00,,,-99.99,,2013-02-04 05:11:00,
2013-02-03 21:22:00,60.0,30.0,29.98,WNW,300,3.0,8.0,32,0.00,,,-99.99,,2013-02-04 05:22:00,
2013-02-03 21:33:00,60.0,31.0,29.99,WNW,290,2.0,5.0,33,0.00,,,-99.99,,2013-02-04 05:33:00,
2013-02-03 21:41:00,60.0,30.0,29.99,WNW,300,1.0,6.0,32,0.00,,,-99.99,,2013-02-04 05:41:00,
2013-02-03 21:52:00,60.0,30.0,29.99,WNW,300,1.0,6.0,32,0.00,,,-99.99,,2013-02-04 05:52:00,
2013-02-03 22:01:00,60.0,31.0,29.98,WNW,300,3.0,3.0,33,0.00,,,-99.99,,2013-02-04 06:01:00,
2013-02-03 22:11:00,61.0,29.0,29.98,North,0,0.0,3.0,29,0.00,,,-99.99,,2013-02-04 06:11:00,
2013-02-03 22:21:00,61.0,29.0,29.98,North,0,0.0,3.0,29,0.00,,,-99.99,,2013-02-04 06:21:00,
2013-02-03 22:31:00,61.0,28.0,29.98,North,-999,0.0,0.0,28,0.00,,,-99.99,,2013-02-04 06:31:00,
2013-02-03 22:41:00,61.0,27.0,29.98,North,0,0.0,2.0,27,0.00,,,-99.99,,2013-02-04 06:41:00,
2013-02-03 22:52:00,61.0,27.0,29.98,North,0,0.0,2.0,27,0.00,,,-99.99,,2013-02-04 06:52:00,
2013-02-03 23:00:00,59.0,31.0,29.99,North,-999,0.0,0.0,34,0.00,,,-99.99,,2013-02-04 07:00:00,
2013-02-03 23:01:00,60.0,26.0,29.99,North,-999,0.0,0.0,27,0.00,,,-99.99,,2013-02-04 07:01:00,
2013-02-03 23:21:00,60.0,29.0,29.99,North,0,0.0,1.0,31,0.00,,,-99.99,,2013-02-04 07:21:00,
2013-02-03 23:31:00,59.0,31.0,29.99,North,-999,0.0,0.0,34,0.00,,,-99.99,,2013-02-04 07:31:00,
2013-02-03 23:41:00,59.0,31.0,29.99,North,-999,0.0,0.0,34,0.00,,,-99.99,,2013-02-04 07:41:00,
2013-02-03 23:51:00,59.0,31.0,29.99,North,-999,0.0,0.0,34,0.00,,,-99.99,,2013-02-04 07:51:00,